Погода в Тернополе

Хотите узнать прогноз погоды в Тернополе? Тогда Вам сюда: Погода в Тернополе

Поиск расширенной информации на нашем сайте:

Полезная информация:

Новости сайта



02.01.2020
Опубликован Долгосрочный прогноз погоды по городам России и ближнего зарубежья на январь 2020 года.
Карты: Прогноз на январь и февраль 2020 года, Сравнение прогнозируемой аномалии приземной температуры воздуха на январь 2020 года по разным моделям.




Погода в Тернополе - сегодня

Время (UTC), дата Ветер
(°,м/с) 
Видим.   Явления Облачность Т
(°С)
Тd
(°С)
f(%) Тe
(°С)
Pmin
(гПа)
dP
(гПа)
Po
(мм)
O2
(г/м3)
Тmin Tmax R s Состояние
почвы
00 16.01.22 290 (З) 10 км    10/8 960 м средняя 
[Sc|Ac und]
-0.7 -2.5 88 -4  1025.1  0.8  738  298           
03 16.01.22 290 (З) 10 км    9/9 800 м 
[Sc]
-1.2 -3.5 84 -4  1025  -0.2  738  299           
06 16.01.22 290 (З) 10 км    9/9 660 м 
[Sc]
-1.7 -5.1 78 -4  1024.9  -0.1  738  300  -1.8      <0.5  мокрый или
старый снег
50-90% 
09 16.01.22 280 (З) 10 км    8/6 1000 м средняя 
[Sc|Ac trans]
-1.6 -5.7 74 -5  1025.1  0.2  738  300           
12 16.01.22 240 (ЮЗ) 10 км    5/0 средняя 
[Ac trans]
+0.2 -3.9 74 -1  1022.4  -2.4  736  297           
15 16.01.22 220 (ЮЗ) 10 км    3/0 средняя 
[Ac trans]
-0.6 -3.3 82 -1  1020.6  -1.8  735  297           
18 16.01.22 200 (Ю) 10 км    3/0 средняя, верхняя 
[Ac trans|Ci fib]
-2.8 -5.1 84 -5  1019  -1.9  733  299    +0.8       
21 16.01.22 230 (ЮЗ) 10 км    ясно 
-1.3 -3.3 86 -3  1017.4  -1.3  732  297           
00 17.01.22 260 (З) 10 км    5/0 средняя 
[Ac trans]
+0.3 -1.4 88 -4  1014.6  -2.4  731  294           
03 17.01.22 270 (З) 10 км    4/0 средняя 
[Ac trans]
+0.7 -0.7 90 -3  1012.6  -1.9  729  293           
06 17.01.22 250 (З) 10 км    10/8 800 м средняя 
[Sc|Ac As]
+0.8 -0.3 92 -3  1010.8  -1.7  728  292  -2.8      <0.5  мокрый или
старый снег
50-90% 
09 17.01.22 250 (З) 11  10 км  {ливн. осадки}  9/8 750 м кучево-дожд., средняя 
[Cb cap|Ac trans]
+1.6 -0.3 87 -3  1006.4  -4.1  725  290           
12 17.01.22 260 (З) 12{18}  4000 м  слаб. ливневой дождь со снегом  10/8 540 м кучево-дожд., средняя 
[Cb cap|Ac und]
+1.4 -0.5 87 -4  1002.7  -3.6  722  289           
15 17.01.22 300 (СЗ) 12  2000 м  слаб. ливневой дождь со снегом  10/9 210 м кучево-дожд., средняя 
[Cb cap|Ac und]
+0.4 -0.4 94 -5  1002.2  -0.6  722  290           
18 17.01.22 290 (З) 12  10 км  {ливн. осадки}  10/8 1000 м кучево-дожд., средняя 
[Cb cap|Ac und]
-1.2 -2.5 91 -7  1006.4  3.8  725  293    +1.7     
21 17.01.22 290 (З) 13  10 км  слаб. ливневой снег  10/8 900 м кучево-дожд., средняя 
[Cb cap|Ac und]
-1.4 -2.8 90 -7  1008.6  2.1  726  294           
00 18.01.22 310 (СЗ) 14-19{21}  10 км  позёмок{ливн. осадки}  6/0 средняя 
[Ac trans]
-1.6 -3.9 84 -8  1013.5  4.6  730  296           
03 18.01.22 310 (СЗ) 11  10 км  позёмок  9/0 средняя 
[Ac trans]
-2.5 -4.7 85 -8  1017.6  3.8  732  298           
06 18.01.22 300 (СЗ) 10  10 км    9/5 1000 м средняя 
[Sc|Ac trans]
-2.6 -4.8 85 -8  1019.7  734  299  -2.7    0.3     
09 18.01.22 300 (СЗ) 4000 м  слаб. ливневой снег  10/8 700 м кучево-дожд., средняя 
[Cb cap|Ac und]
-1.4 -3.4 86 -6  1020.9  1.4  735  298           
12 18.01.22 310 (СЗ) 11{18}  10 км  метель{ливн. осадки}  8/6 660 м кучево-дожд., средняя 
[Cb cap|Ac und]
-0.5 -3.9 78 -6  1022.4  1.5  736  298           
15 18.01.22 310 (СЗ) 10 км  позёмок  8/8 750 м 
[Sc]
-1.1 -4.3 79 -6  1025.6  738  299           
18 18.01.22 310 (СЗ) 10 км  позёмок  5/0 верхняя 
[Ci fib]
-2.5 -6.9 72 -7  1028.6  2.7  740  302    -0.4  0.1     
21 18.01.22 300 (СЗ) 10 км    3/0 верхняя 
[Ci fib]
-3.3 -6.1 81 -7  1030.8  742  303           
00 19.01.22 290 (З) 10 км    3/0 верхняя 
[Ci fib]
-4.6 -6.6 86 -9  1031.3  0.3  742  305           
Время (UTC), дата Ветер
(°,м/с) 
Видим.   Явления Облачность Т
(°С)
Тd
(°С)
f(%) Тe
(°С)
Pmin
(гПа)
dP
(гПа)
Po
(мм)
O2
(г/м3)
Тmin Tmax R s Состояние
почвы

Для получения пояснительной информации подведите курсор к названию столбца.

ПОГОДА в Тернополе - архив

Всё, что Вы хотите узнать о погоде в Тернополе - удобно и подробно!

Выберите нужную дату (начиная с 1 января 2019* года) и нажмите кнопку "Найти".
Будут отображены архивные сводки погоды по пункту Тернополь, начиная с указанной даты.


Отображать данные в формате CSV (для использования в таблицах Excel)


Внимание! Наш архив погоды предназначен исключительно для личного некоммерческого использования в познавательных целях. Если Вам необходимы официальные справки о состоянии погоды (для производственных, юридических, коммерческих и т.п. целей), обращайтесь в органы Росгидромета.

*Примечание: данная дата относится к архиву по метеостанциям СССР (Россия, СНГ, Балтия).
Архив по метеостанциям Зарубежной Европы и Азии (кроме Китая) хранится 10 дней, по другим регионам земного шара (Китай, Африка, Америка, Австралия, Океания) - 1 день.

Тернополь - район местоположения метеостанции


Название, широта, долгота, высота метеостанции:
Тернополь 49.5°ш. 25.7°д. 329 м над ур. моря [Украина]

Дополнительная информация

В oтличие oт бoльшинства пoгoдных сайтoв мы публикуем пoдрoбную метеoинфoрмацию в детальнoм прoфессиoнальнoм фoрмате.

Характеристики температуры и влажнoсти вoздуха измеряются на высoте 2 м в тени вдали oт зданий и деревьев.
Скoрoсть ветра измеряется на высoте 10 м (на урoвне рoста челoвека скoрoсть ветра ниже в 1.5-2 раза). Если метеoстанция нахoдится в гoрoде или в лесу, тo скoрoсть ветра занижена на 2-4 м/с пo сравнению с oткрытым местoм. Скoрoсть ветра над акватoриями крупных рек и oзёр, а также на вершинах хoлмoв на 2-5 м/с выше, чем в oбычных услoвиях.
Атмoсфернoе давление в разных тoчках местнoсти мoжет значительнo oтличаться oт давления на метеoстанции, в зависимoсти oт услoвий рельефа (при пoдъёме на 10 м давление пoнижается примернo на 1 мм рт.ст.).